Simultaneous Nadir Overpasses (SNOs) Predictions

Prediction of SNOs between AQUA and NOAA-19 Satellite Orbit:

Table of predicted SNOs for the next 14.0 days since TLE Epoch: 9/8/2017
Index Date (AQUA) Time (AQUA) Lat,Lon (AQUA) SZA (AQUA ) Date (NOAA-19) Time (NOAA-19) Lat,Lon (NOAA-19) SZA (NOAA-19 ) Distance(km) Time Diff (sec)
1 09/10/2017 18:26:21 -80.94, 43.12 101.65 09/10/2017 18:26:10 -80.94, 43.24 101.66 2.19 11
2 09/13/2017 00:00:05 80.94, 139.73 79.17 09/12/2017 23:59:51 80.94, 139.85 79.17 2.19 14
3 09/15/2017 05:33:48 -80.94,-123.78 99.99 09/15/2017 05:33:43 -80.94,-123.93 99.97 2.80 5
4 09/17/2017 11:07:32 80.95, -27.32 80.87 09/17/2017 11:07:23 80.94, -27.21 80.86 2.22 9
5 09/19/2017 16:41:13 -80.94, 69.42 98.32 09/19/2017 16:41:13 -80.94, 69.46 98.32 0.67 0




NCC Satellite Simultaneous Nadir Overpasses (SNOs) Prediction Service
